| time (UTC) | temp F | wind direction | speed MPH | gust MPH | rain 1hr in | rain 24hr in | rain mn in | humidity % | barometer mb |
| 20260508170003 | 55 | 309 | 4.0 | 6.0 | 0.02 | 0.06 | 0.04 | 89 | 1016.8 |
| 20260508165003 | 55 | 309 | 4.0 | 6.0 | 0.02 | 0.06 | 0.04 | 86 | 1016.7 |
| 20260508164008 | 55 | 313 | 5.0 | 6.0 | 0.01 | 0.06 | 0.04 | 84 | 1016.8 |
| 20260508163008 | 56 | 307 | 4.0 | 7.0 | 0.00 | 0.05 | 0.03 | 77 | 1016.9 |
| 20260508162003 | 57 | 307 | 4.0 | 6.0 | 0.00 | 0.05 | 0.02 | 78 | 1016.6 |
| 20260508161008 | 58 | 306 | 5.0 | 9.0 | 0.00 | 0.05 | 0.02 | 75 | 1016.5 |
| 20260508160008 | 59 | 307 | 5.0 | 8.0 | 0.02 | 0.05 | 0.02 | 80 | 1016.4 |
| 20260508155218 | 58 | 308 | 5.0 | 8.0 | 0.02 | 0.05 | 0.02 | 79 | 1016.4 |
| 20260508154218 | 56 | 312 | 5.0 | 7.0 | 0.02 | 0.05 | 0.02 | 86 | 1016.4 |
| 20260508153008 | 54 | 312 | 4.0 | 7.0 | 0.02 | 0.05 | 0.02 | 86 | 1016.8 |
| 20260508152003 | 54 | 313 | 4.0 | 8.0 | 0.02 | 0.05 | 0.02 | 84 | 1016.5 |
| 20260508151003 | 56 | 311 | 4.0 | 6.0 | 0.02 | 0.04 | 0.02 | 79 | 1016.6 |
| 20260508150008 | 57 | 310 | 4.0 | 6.0 | 0.00 | 0.02 | 0.00 | 72 | 1016.4 |
| 20260508145003 | 58 | 310 | 4.0 | 7.0 | 0.00 | 0.02 | 0.00 | 71 | 1016.4 |
| 20260508144003 | 58 | 302 | 4.0 | 8.0 | 0.00 | 0.02 | 0.00 | 67 | 1016.4 |
| 20260508143008 | 58 | 306 | 5.0 | 7.0 | 0.00 | 0.02 | 0.00 | 67 | 1016.3 |
| 20260508142221 | 58 | 307 | 5.0 | 7.0 | 0.00 | 0.02 | 0.00 | 69 | 1016.5 |
| 20260508141003 | 58 | 308 | 5.0 | 7.0 | 0.00 | 0.02 | 0.00 | 67 | 1016.4 |
| 20260508140008 | 59 | 308 | 5.0 | 8.0 | 0.00 | 0.02 | 0.00 | 62 | 1016.5 |
| 20260508135003 | 60 | 302 | 5.0 | 7.0 | 0.00 | 0.02 | 0.00 | 63 | 1016.4 |
| 20260508134003 | 61 | 304 | 5.0 | 9.0 | 0.00 | 0.02 | 0.00 | 62 | 1016.4 |
| 20260508133008 | 61 | 303 | 5.0 | 9.0 | 0.00 | 0.02 | 0.00 | 62 | 1016.4 |
| 20260508132008 | 60 | 302 | 5.0 | 10.0 | 0.00 | 0.02 | 0.00 | 60 | 1016.4 |
| 20260508131217 | 62 | 303 | 6.0 | 9.0 | 0.00 | 0.02 | 0.00 | 60 | 1016.3 |
| 20260508130223 | 61 | 303 | 5.0 | 11.0 | 0.00 | 0.02 | 0.00 | 64 | 1016.4 |
| 20260508125003 | 60 | 301 | 5.0 | 10.0 | 0.00 | 0.02 | 0.00 | 62 | 1016.5 |
| 20260508124008 | 59 | 300 | 5.0 | 9.0 | 0.00 | 0.02 | 0.00 | 65 | 1016.5 |
| 20260508123008 | 58 | 301 | 5.0 | 9.0 | 0.00 | 0.02 | 0.00 | 64 | 1016.4 |
| 20260508122008 | 59 | 304 | 5.0 | 10.0 | 0.00 | 0.02 | 0.00 | 64 | 1016.6 |
| 20260508121003 | 60 | 304 | 5.0 | 9.0 | 0.00 | 0.02 | 0.00 | 60 | 1016.6 |
| 20260508120216 | 60 | 301 | 5.0 | 9.0 | 0.00 | 0.02 | 0.00 | 63 | 1016.6 |
| 20260508115008 | 58 | 298 | 4.0 | 8.0 | 0.00 | 0.02 | 0.00 | 64 | 1016.7 |
| 20260508114003 | 57 | 306 | 5.0 | 9.0 | 0.00 | 0.02 | 0.00 | 66 | 1016.8 |
| 20260508113218 | 57 | 308 | 5.0 | 8.0 | 0.00 | 0.02 | 0.00 | 68 | 1016.9 |
| 20260508112218 | 58 | 304 | 5.0 | 8.0 | 0.00 | 0.02 | 0.00 | 65 | 1016.7 |
| 20260508111003 | 58 | 305 | 5.0 | 9.0 | 0.00 | 0.02 | 0.00 | 69 | 1016.8 |
| 20260508110008 | 58 | 302 | 5.0 | 9.0 | 0.00 | 0.02 | 0.00 | 66 | 1016.7 |
| 20260508105008 | 57 | 302 | 5.0 | 9.0 | 0.00 | 0.02 | 0.00 | 71 | 1016.6 |
| 20260508104008 | 56 | 305 | 5.0 | 9.0 | 0.00 | 0.02 | 0.00 | 74 | 1016.8 |
| 20260508103008 | 56 | 307 | 5.0 | 9.0 | 0.00 | 0.02 | 0.00 | 71 | 1016.5 |
| 20260508102008 | 55 | 303 | 5.0 | 9.0 | 0.00 | 0.02 | 0.00 | 72 | 1016.5 |
| 20260508101218 | 54 | 307 | 5.0 | 7.0 | 0.00 | 0.02 | 0.00 | 72 | 1016.7 |
| 20260508100222 | 54 | 304 | 4.0 | 6.0 | 0.00 | 0.02 | 0.00 | 72 | 1016.8 |
| 20260508095003 | 56 | 309 | 4.0 | 9.0 | 0.00 | 0.02 | 0.00 | 70 | 1016.9 |
| 20260508094003 | 54 | 308 | 5.0 | 8.0 | 0.00 | 0.02 | 0.00 | 70 | 1016.7 |
| 20260508093003 | 54 | 310 | 4.0 | 8.0 | 0.00 | 0.02 | 0.00 | 68 | 1016.8 |
| 20260508092217 | 55 | 309 | 4.0 | 8.0 | 0.00 | 0.02 | 0.00 | 69 | 1016.7 |
| 20260508091217 | 54 | 305 | 4.0 | 6.0 | 0.00 | 0.02 | 0.00 | 69 | 1016.5 |
| 20260508090008 | 52 | 305 | 5.0 | 8.0 | 0.00 | 0.02 | 0.00 | 77 | 1016.5 |
| 20260508085217 | 52 | 302 | 4.0 | 8.0 | 0.00 | 0.02 | 0.00 | 76 | 1016.6 |
| 20260508084008 | 52 | 309 | 4.0 | 6.0 | 0.00 | 0.02 | 0.00 | 75 | 1016.6 |
| 20260508083003 | 51 | 312 | 4.0 | 10.0 | 0.00 | 0.02 | 0.00 | 80 | 1016.6 |
| 20260508082003 | 50 | 311 | 5.0 | 8.0 | 0.00 | 0.02 | 0.00 | 81 | 1016.6 |
| 20260508081223 | 51 | 309 | 4.0 | 7.0 | 0.00 | 0.02 | 0.00 | 80 | 1016.7 |
| 20260508080003 | 50 | 309 | 4.0 | 7.0 | 0.00 | 0.02 | 0.00 | 81 | 1016.7 |
| 20260508075008 | 49 | 312 | 4.0 | 11.0 | 0.00 | 0.02 | 0.00 | 83 | 1016.5 |
| 20260508074217 | 48 | 315 | 5.0 | 9.0 | 0.00 | 0.02 | 0.00 | 84 | 1016.6 |
| 20260508073223 | 47 | 305 | 4.0 | 8.0 | 0.00 | 0.02 | 0.00 | 86 | 1016.5 |
| 20260508072008 | 47 | 304 | 4.0 | 8.0 | 0.00 | 0.02 | 0.00 | 87 | 1016.4 |
| 20260508071003 | 47 | 316 | 5.0 | 7.0 | 0.00 | 0.02 | 0.00 | 87 | 1016.5 |
| 20260508070003 | 47 | 315 | 4.0 | 8.0 | 0.00 | 0.02 | 0.00 | 86 | 1016.4 |
| 20260508065003 | 47 | 320 | 3.0 | 7.0 | 0.00 | 0.02 | 0.00 | 86 | 1016.4 |
| 20260508064216 | 47 | 320 | 4.0 | 9.0 | 0.00 | 0.02 | 0.00 | 85 | 1016.4 |
| 20260508063008 | 47 | 318 | 4.0 | 7.0 | 0.00 | 0.02 | 0.00 | 87 | 1016.1 |
| 20260508062003 | 46 | 312 | 4.0 | 7.0 | 0.00 | 0.02 | 0.00 | 89 | 1016.0 |
| 20260508061003 | 46 | 315 | 4.0 | 7.0 | 0.00 | 0.02 | 0.00 | 90 | 1016.0 |
| 20260508060008 | 45 | 329 | 4.0 | 8.0 | 0.00 | 0.02 | 0.00 | 90 | 1016.0 |
| 20260508055008 | 45 | 331 | 3.0 | 7.0 | 0.00 | 0.02 | 0.00 | 89 | 1016.0 |
| 20260508054003 | 44 | 309 | 3.0 | 7.0 | 0.00 | 0.02 | 0.00 | 90 | 1015.8 |
| 20260508053008 | 44 | 307 | 2.0 | 4.0 | 0.00 | 0.02 | 0.00 | 90 | 1015.9 |
| 20260508052218 | 44 | 309 | 3.0 | 5.0 | 0.00 | 0.02 | 0.00 | 90 | 1016.0 |
| 20260508051008 | 44 | 326 | 3.0 | 6.0 | 0.00 | 0.02 | 0.00 | 89 | 1015.8 |
| 20260508050008 | 44 | 333 | 4.0 | 9.0 | 0.00 | 0.02 | 0.00 | 87 | 1015.7 |
| 20260508045004 | 44 | 323 | 4.0 | 7.0 | 0.00 | 0.02 | 0.00 | 85 | 1015.7 |
| 20260508044003 | 44 | 315 | 3.0 | 7.0 | 0.00 | 0.02 | 0.00 | 85 | 1015.5 |
| 20260508043003 | 45 | 322 | 3.0 | 6.0 | 0.00 | 0.02 | 0.00 | 85 | 1015.6 |
| 20260508042003 | 45 | 306 | 2.0 | 5.0 | 0.00 | 0.02 | 0.00 | 85 | 1015.7 |
| 20260508041217 | 45 | 320 | 3.0 | 6.0 | 0.00 | 0.02 | 0.00 | 84 | 1015.6 |
| 20260508040003 | 45 | 331 | 4.0 | 11.0 | 0.00 | 0.02 | 0.00 | 84 | 1015.6 |
| 20260508035008 | 45 | 321 | 3.0 | 8.0 | 0.00 | 0.02 | 0.00 | 85 | 1015.6 |
| 20260508034217 | 45 | 314 | 3.0 | 6.0 | 0.00 | 0.02 | 0.00 | 86 | 1015.7 |
| 20260508033003 | 45 | 301 | 2.0 | 6.0 | 0.00 | 0.02 | 0.00 | 88 | 1015.7 |
| 20260508032003 | 46 | 329 | 3.0 | 5.0 | 0.00 | 0.02 | 0.00 | 89 | 1015.6 |
| 20260508031003 | 46 | 320 | 3.0 | 6.0 | 0.00 | 0.02 | 0.00 | 89 | 1015.6 |
| 20260508030008 | 46 | 321 | 3.0 | 7.0 | 0.00 | 0.02 | 0.00 | 90 | 1015.6 |
| 20260508025003 | 46 | 326 | 4.0 | 9.0 | 0.00 | 0.02 | 0.00 | 90 | 1015.5 |
| 20260508024008 | 46 | 320 | 4.0 | 11.0 | 0.00 | 0.02 | 0.00 | 90 | 1015.6 |
| 20260508023003 | 46 | 319 | 3.0 | 7.0 | 0.00 | 0.02 | 0.00 | 91 | 1015.5 |
| 20260508022008 | 46 | 324 | 4.0 | 8.0 | 0.00 | 0.02 | 0.00 | 91 | 1015.5 |
| 20260508021223 | 46 | 317 | 3.0 | 7.0 | 0.00 | 0.02 | 0.00 | 92 | 1015.5 |
| 20260508020004 | 46 | 330 | 4.0 | 9.0 | 0.00 | 0.02 | 0.00 | 92 | 1015.3 |
| 20260508015003 | 46 | 332 | 3.0 | 8.0 | 0.00 | 0.02 | 0.00 | 92 | 1015.5 |
| 20260508014003 | 46 | 331 | 4.0 | 7.0 | 0.00 | 0.02 | 0.00 | 92 | 1015.2 |
| 20260508013003 | 46 | 316 | 3.0 | 5.0 | 0.00 | 0.02 | 0.00 | 92 | 1015.5 |
| 20260508012223 | 46 | 325 | 3.0 | 4.0 | 0.00 | 0.02 | 0.00 | 92 | 1015.6 |
| 20260508011003 | 46 | 324 | 3.0 | 4.0 | 0.00 | 0.02 | 0.00 | 91 | 1015.7 |
| 20260508010216 | 46 | 318 | 3.0 | 4.0 | 0.00 | 0.02 | 0.00 | 91 | 1015.7 |
| 20260508005003 | 46 | 322 | 3.0 | 6.0 | 0.00 | 0.02 | 0.00 | 90 | 1015.6 |
| 20260508004008 | 46 | 320 | 3.0 | 4.0 | 0.00 | 0.02 | 0.00 | 91 | 1015.7 |
| 20260508003003 | 46 | 321 | 3.0 | 4.0 | 0.00 | 0.02 | 0.00 | 91 | 1015.8 |
| 20260508002003 | 46 | 320 | 3.0 | 4.0 | 0.00 | 0.02 | 0.00 | 92 | 1015.8 |
| 20260508001218 | 46 | 322 | 3.0 | 4.0 | 0.00 | 0.02 | 0.00 | 92 | 1015.7 |
| 20260508000003 | 46 | 318 | 3.0 | 4.0 | 0.00 | 0.02 | 0.00 | 92 | 1015.8 |
| 20260507235222 | 46 | 319 | 3.0 | 4.0 | 0.00 | 0.02 | 0.00 | 91 | 1015.8 |
| 20260507234222 | 46 | 321 | 3.0 | 4.0 | 0.00 | 0.02 | 0.00 | 91 | 1015.7 |
| 20260507233003 | 46 | 322 | 3.0 | 4.0 | 0.00 | 0.02 | 0.00 | 91 | 1015.9 |
| 20260507232003 | 46 | 321 | 3.0 | 4.0 | 0.00 | 0.02 | 0.00 | 90 | 1015.8 |
| 20260507231003 | 46 | 320 | 3.0 | 4.0 | 0.00 | 0.02 | 0.00 | 90 | 1015.8 |
| 20260507230008 | 46 | 318 | 3.0 | 5.0 | 0.00 | 0.02 | 0.00 | 90 | 1015.8 |
| 20260507225008 | 47 | 319 | 3.0 | 5.0 | 0.00 | 0.02 | 0.02 | 89 | 1015.6 |
| 20260507224008 | 47 | 320 | 4.0 | 5.0 | 0.00 | 0.02 | 0.02 | 90 | 1015.9 |
| 20260507223221 | 47 | 321 | 3.0 | 5.0 | 0.00 | 0.02 | 0.02 | 90 | 1015.7 |
| 20260507222003 | 47 | 322 | 4.0 | 5.0 | 0.00 | 0.02 | 0.02 | 89 | 1015.7 |
| 20260507221003 | 47 | 321 | 3.0 | 5.0 | 0.00 | 0.02 | 0.02 | 89 | 1015.7 |
| 20260507220003 | 47 | 319 | 3.0 | 5.0 | 0.00 | 0.02 | 0.02 | 89 | 1015.7 |
| 20260507215003 | 47 | 322 | 4.0 | 6.0 | 0.00 | 0.02 | 0.02 | 89 | 1015.7 |
| 20260507214008 | 47 | 325 | 3.0 | 6.0 | 0.00 | 0.02 | 0.02 | 88 | 1015.7 |
| 20260507213008 | 47 | 324 | 3.0 | 5.0 | 0.00 | 0.02 | 0.02 | 88 | 1015.6 |
| 20260507212003 | 46 | 319 | 3.0 | 5.0 | 0.00 | 0.02 | 0.02 | 89 | 1015.7 |
| 20260507211003 | 46 | 320 | 3.0 | 5.0 | 0.00 | 0.02 | 0.02 | 87 | 1015.7 |
| 20260507210008 | 47 | 319 | 3.0 | 5.0 | 0.00 | 0.02 | 0.02 | 87 | 1015.5 |
| 20260507205008 | 46 | 320 | 3.0 | 5.0 | 0.00 | 0.02 | 0.02 | 87 | 1015.5 |
| 20260507204008 | 46 | 323 | 3.0 | 5.0 | 0.00 | 0.02 | 0.02 | 89 | 1015.2 |
| 20260507203008 | 46 | 321 | 3.0 | 5.0 | 0.00 | 0.02 | 0.02 | 89 | 1015.5 |
| 20260507202003 | 47 | 319 | 3.0 | 5.0 | 0.00 | 0.02 | 0.02 | 90 | 1015.3 |
| 20260507201008 | 47 | 322 | 3.0 | 5.0 | 0.00 | 0.02 | 0.02 | 90 | 1015.0 |
| 20260507200008 | 47 | 321 | 3.0 | 5.0 | 0.00 | 0.02 | 0.02 | 90 | 1015.2 |
| 20260507195008 | 47 | 320 | 4.0 | 5.0 | 0.00 | 0.02 | 0.02 | 90 | 1014.9 |
| 20260507194013 | 47 | 321 | 4.0 | 4.0 | 0.00 | 0.02 | 0.02 | 89 | 1015.0 |
| 20260507193008 | 47 | 320 | 4.0 | 5.0 | 0.00 | 0.02 | 0.02 | 88 | 1014.8 |
| 20260507192013 | 47 | 319 | 4.0 | 5.0 | 0.00 | 0.02 | 0.02 | 88 | 1014.9 |
| 20260507191003 | 48 | 317 | 3.0 | 5.0 | 0.00 | 0.02 | 0.02 | 87 | 1014.9 |
| 20260507190008 | 48 | 318 | 3.0 | 5.0 | 0.00 | 0.02 | 0.02 | 88 | 1014.8 |
| 20260507185008 | 48 | 317 | 3.0 | 5.0 | 0.00 | 0.02 | 0.02 | 88 | 1015.1 |
| 20260507184003 | 49 | 317 | 3.0 | 5.0 | 0.00 | 0.02 | 0.02 | 89 | 1015.0 |
| 20260507183008 | 48 | 318 | 3.0 | 5.0 | 0.00 | 0.02 | 0.02 | 91 | 1014.9 |
| 20260507182222 | 48 | 317 | 3.0 | 4.0 | 0.02 | 0.02 | 0.02 | 91 | 1014.8 |
| 20260507181003 | 48 | 318 | 3.0 | 4.0 | 0.02 | 0.02 | 0.02 | 91 | 1014.8 |
| 20260507180008 | 48 | 318 | 3.0 | 4.0 | 0.02 | 0.02 | 0.02 | 89 | 1014.6 |
| 20260507175003 | 48 | 316 | 4.0 | 5.0 | 0.02 | 0.02 | 0.02 | 88 | 1014.6 |
| 20260507174008 | 48 | 318 | 4.0 | 5.0 | 0.02 | 0.02 | 0.02 | 87 | 1014.6 |
| 20260507173008 | 49 | 317 | 3.0 | 5.0 | 0.02 | 0.02 | 0.02 | 84 | 1014.9 |
| 20260507172008 | 49 | 322 | 3.0 | 6.0 | 0.00 | 0.00 | 0.00 | 87 | 1015.0 |
| 20260507171008 | 48 | 319 | 4.0 | 7.0 | 0.00 | 0.00 | 0.00 | 90 | 1014.7 |